DECAYED

CZ-2D DEB, 58144 (Decayed)

Orbit data source: Space-Track

CZ-2D DEB, 58144 was space debris in LEO originally from a launch on Mon, 23 Oct 2023 UTC launched from the Xichang Space Center, China (XSC). Debris objects in space refer to the collection of defunct objects orbiting the Earth. Examples of debris include non-operational satellites, rocket bodies, and fragments generated from explosions, collisions, or faulty payload assembly.

Not visible in the next 10 days
Identifier
58144, 2023-163D
Orbit
Decayed
Last TLE update
1 year ago
Origin
Manufacturer
SAST
Mission
Decayed spacecraft
Bus & Motor
Unknown
Mass
300 kg wet, 300 kg dry
Launch date (UTC)
2023-10-23 (2 years ago)
Launch vehicle
Unknown
Launch site
Xichang Space Center, China (XSC)
Object type
Payload
Rocket body
Debris
Shape & HBR
Cone + 1 Sail, 5 m
Radar Cross Section
4.639 m², Large (>1 m²)

Expand to show TLE details & history

TLE from 1 year ago
0 CZ-2D DEB
1 58144U 23163D   24204.77725051  .08939502  14539-5  22271-2 0  9992
2 58144  34.9775 336.7201 0010539 348.7546 128.8930 16.27794060 42195
Epoch: 2024-07-22T18:39Z
TLE epoch observation values (Epoch: 2024-07-22T18:39:14.444Z)
Latitude
30.62413°
Longitude
-121.37024°
Altitude
202.552 km
Speed
7.788 km/s
True Right ascension
06h 37m 46s
True Declination
30° 27' 39"
Sunlit
Object was in daylight at epoch
Visualization orbit readout
Visualization observer readout
Orbital elements
Apogee altitude
208.81 km
Perigee altitude
194.941 km
Semi-major axis
6,580.013 km
Eccentricity
0.00105
Inclination
34.9775°
RAAN
336.7201°
Arg. of periapsis
348.7546°
True anomaly
Unknown
Mean anomaly
128.893°
Eccentric anomaly
Unknown
Mean motion
4.06633 °/min
Orbital period
88.53 mins
BSTAR
0.0022271
Loading maneuver chart data...
Loading SW <> Apogee altitude chart data...
Loading historical data...
Loading historical data...
Loading historical data...
Loading historical data...
Loading historical data...
Loading historical data...
Loading historical data...
Other satellites on launch #163 in the year 2023 (2023-10-23 UTC)

CZ-2D DEB Visibility

Observer location: undefined°, undefined°

This satellite is decayed
Span
Click to sort rows by Start time (UTC) header in descending order
Start Az.
Max El. time (UTC)
Max El. Az.
Max El.
End time (UTC)
End Az.
|